Back to catalog

GAOFEN 4

AliveScienceGEO
NORAD 41194·PAYLOAD·🇨🇳 China

Launched Dec 28, 2015 from Xichang Satellite Launch Center

Loading…

TLE

FreshSource: Space-Track

Epoch: Sep 14, 2026, 14:18 UTC

1 41194U 15083A   26257.59607443 -.00000342  00000-0  00000-0 0  9996
2 41194   0.5826  83.3447 0003565 138.1761  92.3502  1.00270754 39422

Track GAOFEN 4 in real time with AllMySat

Download on the App Store